Date String (YYYY-MM-DD hh:mm:ss) UTC,Instrument flags,Ambient pressure (hPa),Sample flow (lpm),Bypass flow (lpm),Sample temperature (°C),Ambient temperature (°C),ASC tube jacket temperature (°C),LED temperature (°C),Box temperature (°C),Sample RH (%),Span deviation,Mass concentration (μg/m³),Mass concentration (μg/m³),Mass concentration (μg/m³)
DateTimeUTC,F1_M11,P_M11,Q1_M11,Q2_M11,T1_M11,T2_M11,T3_M11,T4_M11,T5_M11,U1_M11,ZSPAN_M11,X0_M11,X2_M11,X1_M11
2022-05-19 05:00:00,,0822.1,5.00,0.00,29.6,28.7,00.0,38.4,31.5,10.3,0000.0,0010.06,0003.86,0002.23
2022-05-19 05:01:00,,0822.1,5.00,0.00,29.7,28.7,00.0,38.4,31.6,10.2,0000.0,0009.95,0003.85,0002.22
2022-05-19 05:02:00,,0822.1,5.01,0.00,29.7,28.8,00.0,38.5,31.6,10.2,0000.0,0009.91,0003.88,0002.24
2022-05-19 05:03:00,,0822.1,4.99,0.00,29.7,28.8,00.0,38.5,31.6,10.2,0000.0,0009.74,0003.92,0002.25
2022-05-19 05:04:00,,0822.1,5.00,0.00,29.7,28.8,00.0,38.5,31.6,10.2,0000.0,0009.02,0003.90,0002.27
2022-05-19 05:05:00,,0822.1,5.01,0.00,29.7,28.8,00.0,38.5,31.7,10.2,0000.0,0008.96,0003.87,0002.28
2022-05-19 05:06:00,,0822.0,4.99,0.00,29.7,28.2,00.0,38.5,31.5,10.2,0000.0,0008.81,0003.82,0002.27
2022-05-19 05:07:00,,0822.0,5.00,0.00,29.6,27.4,00.0,38.4,31.2,10.2,0000.0,0008.65,0003.76,0002.28
2022-05-19 05:08:00,,0822.0,5.00,0.00,29.6,27.2,00.0,38.4,31.2,10.2,0000.0,0008.60,0003.77,0002.29
2022-05-19 05:09:00,,0822.0,5.00,0.00,29.5,27.2,00.0,38.4,31.1,10.3,0000.0,0008.39,0003.75,0002.28
2022-05-19 05:10:00,,0822.0,5.00,0.00,29.4,27.3,00.0,38.4,31.1,10.4,0000.0,0008.24,0003.75,0002.28
2022-05-19 05:11:00,,0822.0,4.99,0.00,29.4,27.5,00.0,38.3,31.1,10.5,0000.0,0008.61,0003.74,0002.27
2022-05-19 05:12:00,,0821.9,4.99,0.00,29.4,27.6,00.0,38.3,31.2,10.5,0000.0,0008.61,0003.74,0002.28
2022-05-19 05:13:00,,0822.0,5.00,0.00,29.4,27.7,00.0,38.3,31.2,10.5,0000.0,0008.48,0003.68,0002.28
2022-05-19 05:14:00,,0822.2,5.01,0.00,29.4,27.9,00.0,38.3,31.2,10.5,0000.0,0008.43,0003.65,0002.27
2022-05-19 05:15:00,,0822.0,4.99,0.00,29.4,28.0,00.0,38.3,31.2,10.6,0000.0,0008.55,0003.66,0002.27
2022-05-19 05:16:00,,0821.9,4.99,0.00,29.4,28.1,00.0,38.3,31.2,10.6,0000.0,0008.41,0003.63,0002.26
2022-05-19 05:17:00,,0821.9,5.01,0.00,29.4,28.1,00.0,38.3,31.3,10.6,0000.0,0008.47,0003.67,0002.28
2022-05-19 05:18:00,,0821.8,4.99,0.00,29.4,28.2,00.0,38.3,31.3,10.6,0000.0,0008.59,0003.71,0002.29
2022-05-19 05:19:00,,0821.8,4.99,0.00,29.4,28.3,00.0,38.3,31.3,10.6,0000.0,0008.77,0003.71,0002.28
2022-05-19 05:20:00,,0821.8,5.01,0.00,29.5,28.3,00.0,38.3,31.3,10.6,0000.0,0009.00,0003.65,0002.27
2022-05-19 05:21:00,,0821.8,4.99,0.00,29.5,28.4,00.0,38.3,31.4,10.6,0000.0,0009.33,0003.62,0002.25
2022-05-19 05:22:00,,0821.8,5.00,0.00,29.5,28.4,00.0,38.4,31.4,10.6,0000.0,0009.62,0003.64,0002.25
2022-05-19 05:23:00,,0821.7,4.99,0.00,29.5,28.4,00.0,38.4,31.4,10.5,0000.0,0009.54,0003.70,0002.26
2022-05-19 05:24:00,,0821.7,5.00,0.00,29.5,28.5,00.0,38.4,31.4,10.5,0000.0,0009.72,0003.72,0002.25
2022-05-19 05:25:00,,0821.7,4.99,0.00,29.6,28.5,00.0,38.4,31.4,10.5,0000.0,0010.34,0003.78,0002.26
2022-05-19 05:26:00,,0821.7,5.00,0.00,29.6,28.5,00.0,38.4,31.5,10.4,0000.0,0010.38,0003.78,0002.27
2022-05-19 05:27:00,,0821.7,5.01,0.00,29.6,28.6,00.0,38.4,31.5,10.3,0000.0,0010.70,0003.82,0002.28
2022-05-19 05:28:00,,0821.6,4.99,0.00,29.6,28.6,00.0,38.4,31.5,10.4,0000.0,0010.88,0003.82,0002.26
2022-05-19 05:29:00,,0821.7,5.00,0.00,29.6,28.6,00.0,38.5,31.5,10.5,0000.0,0010.92,0003.83,0002.28
2022-05-19 05:30:00,,0821.7,5.02,0.00,29.7,28.7,00.0,38.5,31.5,10.4,0000.0,0010.72,0003.83,0002.29
2022-05-19 05:31:00,,0821.6,5.01,0.00,29.7,28.7,00.0,38.5,31.6,10.4,0000.0,0010.43,0003.86,0002.30
2022-05-19 05:32:00,,0821.6,4.99,0.00,29.7,28.7,00.0,38.5,31.6,10.4,0000.0,0010.51,0003.87,0002.31
2022-05-19 05:33:00,,0821.6,4.99,0.00,29.7,28.7,00.0,38.5,31.6,10.4,0000.0,0009.84,0003.84,0002.31
2022-05-19 05:34:00,,0821.6,5.01,0.00,29.7,28.7,00.0,38.5,31.6,10.5,0000.0,0009.73,0003.82,0002.31
2022-05-19 05:35:00,,0821.5,5.00,0.00,29.7,28.8,00.0,38.5,31.6,10.5,0000.0,0009.56,0003.78,0002.31
2022-05-19 05:36:00,,0821.6,5.00,0.00,29.8,28.8,00.0,38.6,31.6,10.6,0000.0,0009.09,0003.77,0002.30
2022-05-19 05:37:00,,0821.5,5.00,0.00,29.8,28.8,00.0,38.6,31.7,10.5,0000.0,0009.05,0003.76,0002.30
2022-05-19 05:38:00,,0821.5,4.99,0.00,29.8,28.8,00.0,38.6,31.7,10.5,0000.0,0008.92,0003.76,0002.29
2022-05-19 05:39:00,,0821.5,5.01,0.00,29.8,28.8,00.0,38.6,31.7,10.5,0000.0,0008.77,0003.77,0002.30
2022-05-19 05:40:00,,0821.4,5.00,0.00,29.8,28.8,00.0,38.6,31.7,10.5,0000.0,0008.77,0003.72,0002.28
2022-05-19 05:41:00,,0821.4,5.00,0.00,29.8,28.8,00.0,38.7,31.7,10.3,0000.0,0008.93,0003.74,0002.27
2022-05-19 05:42:00,,0821.4,5.00,0.00,29.8,28.9,00.0,38.7,31.7,10.2,0000.0,0009.03,0003.77,0002.28
2022-05-19 05:43:00,,0821.4,5.00,0.00,29.8,28.9,00.0,38.7,31.7,10.1,0000.0,0008.53,0003.76,0002.27
2022-05-19 05:44:00,,0821.4,5.00,0.00,29.9,28.9,00.0,38.7,31.7,09.9,0000.0,0008.47,0003.76,0002.24
2022-05-19 05:45:00,,0821.4,5.00,0.00,29.9,28.9,00.0,38.7,31.7,09.9,0000.0,0008.43,0003.74,0002.23
2022-05-19 05:46:00,,0821.3,5.00,0.00,29.9,28.6,00.0,38.7,31.7,10.1,0000.0,0008.47,0003.77,0002.21
2022-05-19 05:47:00,,0821.3,4.99,0.00,29.8,27.7,00.0,38.6,31.4,10.1,0000.0,0008.82,0003.75,0002.21
2022-05-19 05:48:00,,0821.2,5.00,0.00,29.7,27.2,00.0,38.6,31.2,10.3,0000.0,0008.72,0003.70,0002.19
2022-05-19 05:49:00,,0821.2,5.00,0.00,29.6,27.1,00.0,38.5,31.2,10.5,0000.0,0008.48,0003.66,0002.19
2022-05-19 05:50:00,,0821.2,5.00,0.00,29.5,27.2,00.0,38.5,31.1,10.2,0000.0,0008.39,0003.65,0002.20
2022-05-19 05:51:00,,0821.2,5.00,0.00,29.5,27.3,00.0,38.5,31.2,10.2,0000.0,0008.30,0003.66,0002.21
2022-05-19 05:52:00,,0821.2,5.00,0.00,29.5,27.5,00.0,38.5,31.2,10.4,0000.0,0008.36,0003.62,0002.20
2022-05-19 05:53:00,,0821.1,5.00,0.00,29.5,27.6,00.0,38.5,31.2,10.4,0000.0,0009.02,0003.61,0002.19
2022-05-19 05:54:00,,0821.2,5.00,0.00,29.5,27.7,00.0,38.4,31.2,10.4,0000.0,0008.99,0003.63,0002.20
2022-05-19 05:55:00,,0821.1,4.99,0.00,29.5,27.9,00.0,38.4,31.2,10.3,0000.0,0009.38,0003.65,0002.22
2022-05-19 05:56:00,,0821.1,5.00,0.00,29.5,28.0,00.0,38.4,31.3,10.2,0000.0,0009.54,0003.65,0002.22
2022-05-19 05:57:00,,0821.2,5.00,0.00,29.5,28.1,00.0,38.4,31.3,10.1,0000.0,0009.54,0003.64,0002.23
2022-05-19 05:58:00,,0821.1,5.00,0.00,29.5,28.1,00.0,38.4,31.3,10.1,0000.0,0009.18,0003.61,0002.22
2022-05-19 05:59:00,,0821.1,4.99,0.00,29.5,28.2,00.0,38.4,31.3,10.2,0000.0,0009.06,0003.63,0002.22
